Home   Weather   Geneva   Past weeks

Flag for Switzerland Past Weather in Geneva, Geneva, Switzerland — Yesterday and Last 2 Weeks

Now
57 °F

Refreshingly cool.


Feels Like: 54 °F
Forecast: 38 / 48 °F
Wind: 15 mph from Southwest

Location: Geneve-Cointrin

Current Time: Feb 27, 2017 at 7:38:06 pm

Latest Report: Feb 27, 2017 at 6:00 pm


Visibility: N/A

Pressure: 29.68 "Hg

Humidity: 43%

Dew Point: 35 °F

Location of GenevaLocation

Past Weather in Geneva — Graph

°F

Geneva Temperature Yesterday

Maximum temperature yesterday: 59 °F (at 3:00 pm)
Minimum temperature yesterday: 30 °F (at 4:00 am)
Average temperature yesterday: 42 °F

High & Low Weather Summary for the Past Weeks

 TemperatureHumidityPressure
High67 °F (Feb 23, 3:00 pm)99% (Feb 17, 10:00 pm)30.67 "Hg (Feb 17, 10:00 pm)
Low26 °F (Feb 19, 7:00 am)21% (Feb 23, 2:00 pm)29.68 "Hg (Feb 27, 5:00 pm)
Average42 °F73%30.25 "Hg
* Reported Feb 12 6:00 pm — Feb 27 6:00 pm, Geneva, Weather by CustomWeather, © 2017

Note: Actual official high and low records may vary slightly from our data, if they occured in-between our weather recording intervals... More about our weather records

Advertising

Geneva Weather History for the Previous 24 Hours

Scroll right to see more
 ConditionsComfort  
Time TempWeatherWind HumidityBarometerVisibility
6:00 pm
Mon, Feb 27
57 °FRefreshingly cool.15 mph43%29.68 "HgN/A
5:00 pm60 °FRefreshingly cool.21 mph41%29.68 "HgN/A
4:00 pm61 °FPassing clouds.21 mph40%29.68 "Hg25 mi
3:00 pm61 °FRefreshingly cool.23 mph38%29.70 "HgN/A
2:00 pm59 °FRefreshingly cool.20 mph41%29.74 "HgN/A
1:00 pm58 °FPartly sunny.20 mph42%29.79 "Hg22 mi
12:00 pm56 °FRefreshingly cool.13 mph44%29.83 "HgN/A
11:00 am53 °FCool.10 mph49%29.86 "HgN/A
10:00 am47 °FPartly sunny.3 mph59%29.89 "Hg22 mi
9:00 am39 °FChilly.2 mph72%29.93 "HgN/A
8:00 am37 °FChilly.1 mph77%29.95 "HgN/A
7:00 am36 °FOvercast.2 mph78%29.96 "Hg22 mi
6:00 am32 °FChilly.1 mph81%29.99 "HgN/A
5:00 am32 °FChilly.1 mph83%30.00 "HgN/A
4:00 am32 °FChilly.2 mph82%30.01 "HgN/A
3:00 am34 °FChilly.1 mph78%30.02 "HgN/A
2:00 am33 °FChilly.3 mph78%30.04 "HgN/A
1:00 am35 °FChilly.1 mph78%30.05 "HgN/A
12:00 am36 °FChilly.1 mph75%30.06 "HgN/A
11:00 pm
Sun, Feb 26
37 °FChilly.1 mph75%30.07 "HgN/A
10:00 pm41 °FPassing clouds.1 mph67%30.06 "Hg37 mi
9:00 pm46 °FCool.2 mph56%30.05 "HgN/A
8:00 pm46 °FCool.3 mph61%30.05 "HgN/A
7:00 pm48 °FOvercast.3 mph57%30.04 "Hg43 mi
Weather by CustomWeather, © 2017

See weather overviewHow to use our weather pages